www.pogodaiklimat.ru

Погода и климат >> Архив погоды >> Таиланд >> Пичит Агромет


ПОГОДА в Пичит Агромете

  • Прогноз погоды в Пичит Агромете
  • Монитор погоды в Пичит Агромете

АРХИВ ПОГОДЫ в Пичит Агромете

Время (UTC), дата Ветер
(напр.,м/с)
 
Видим.   Явления Облачность Т
(С)
Тd
(С)
f
(%)
Тe
(С)
Тes
(С)
Комфортность P
(гПа)
Po
(гПа)
Тmin
(С)
Tmax
(С)
R
(мм)
R24
(мм)
S
(см)
18 14.05 ЮВ 1 3000 м в посл. час дождь {гроза} 10/10 600 м
[Sc]
+25.0 +24.3 96 +35 +35 очень
душно
1007.5 1003.6 2
21 14.05 Ю 8 3000 м дымка 9/3 600 м
[Sc Cs]
+24.9 +24.3 96 +34 +34 очень
душно
1007.2 1003.3
00 15.05 штиль 0 4000 м дымка 10/10 600 м
[Sc]
+25.0 +24.3 96 +35 +35 очень
душно
1009.0 1005.0 +24.0
03 15.05 ЮВ 4 6000 м дымка 10/3 600 м
[Cu med, cong Ac und Cs]
+29.6 +25.0 76 +42 +46 опасность
перегрева
1009.4 1005.5
06 15.05 В 2 8000 м дымка 10/4 600 м
[Cu med, cong Cs]
+33.0 +25.7 66 +48 +59 опасность
перегрева
1007.7 1003.8
09 15.05 СВ 2 8000 м мгла 10/3 600 м
[Cu med, cong Cs]
+35.0 +25.5 58 +50 +54 опасность
перегрева
1004.3 1000.4
12 15.05 ЮЗ 4 6000 м дымка 10/6 600 м
[Sc Cs]
+32.6 +26.6 71 +50 +50 опасность
перегрева
1005.9 1002.0 +35.2
15 15.05 ЮЗ 2 6000 м дымка 10/3 600 м
[Cu med, cong Cs]
+27.0 +24.5 86 +38 +38 очень
душно
1008.3 1004.4
18 15.05 штиль 0 5000 м дымка 10/0
[Cs]
+26.5 +24.8 90 +38 +38 очень
душно
1007.3 1003.3
21 15.05 штиль 0 5000 м дымка 10/0
[Cs]
+26.2 +25.2 94 +38 +38 очень
душно
1007.0 1003.0
00 16.05 СВ 2 4000 м дымка 9/0
[Ac und Cs]
+27.0 +25.1 89 +39 +40 очень
душно
1008.7 1004.7 +25.5
03 16.05 ЮВ 2 5000 м дымка 9/4 600 м
[Cu med, cong Cs]
+31.5 +24.8 68 +45 +53 опасность
перегрева
1009.3 1005.4
06 16.05 З 4 8000 м мгла 9/4 600 м
[Cu med, cong Cs]
+35.0 +25.5 58 +50 +57 опасность
перегрева
1007.2 1003.4
09 16.05 штиль 0 8000 м мгла 10/3 600 м
[Cu med, cong Cs]
+35.7 +25.8 57 +51 +57 опасность
перегрева
1004.3 1000.4
12 16.05 Ю 6 6000 м дымка 10/3 600 м
[Cu med, cong Cs]
+31.5 +25.9 72 +47 +47 опасность
перегрева
1005.3 1001.4 +36.3
15 16.05 ЮВ 8 6000 м дымка 10/0
[Ac und Cs]
+29.4 +24.8 76 +42 +42 опасность
перегрева
1007.6 1003.7
18 16.05 ЮВ 6 5000 м дымка 10/0
[Ac lent Cs]
+28.3 +25.6 85 +42 +42 опасность
перегрева
1006.5 1002.6
21 16.05 В 6 5000 м дымка 10/0
[Cs]
+27.6 +25.3 87 +40 +40 очень
душно
1006.2 1002.2
00 17.05 В 4 4000 м дымка 10/0
[Cs]
+28.0 +25.6 87 +41 +42 опасность
перегрева
1007.6 1003.6 +26.6
03 17.05 ЮВ 2 5000 м дымка 8/1 600 м
[Cu hum Cs]
+32.0 +25.4 68 +46 +58 опасность
перегрева
1007.8 1003.9
06 17.05 З 4 5000 м мгла 10/3 600 м
[Cu hum Cs]
+35.6 +25.1 55 +49 +58 опасность
перегрева
1006.0 1002.1
09 17.05 ЮЗ 4 7000 м мгла 10/1 600 м
[Cu hum Cs]
+37.0 +24.3 48 +49 +53 опасность
перегрева
1002.0 998.2
12 17.05 Ю 4 7000 м дымка 10/3 600 м
[Cb cap Cs]
+33.8 +27.2 69 +53 +53 опасность
перегрева
1003.3 999.4 +37.1
15 17.05 ЮЗ 2 7000 м дымка 8/0
[Cs]
+31.1 +25.0 70 +45 +45 опасность
перегрева
1005.3 1001.4
18 17.05 штиль 0 7000 м дымка 8/0
[Cs]
+29.5 +26.9 86 +46 +46 опасность
перегрева
1004.7 1000.8
21 17.05 штиль 0 6000 м дымка 8/0
[Cs]
+28.5 +25.8 85 +42 +42 опасность
перегрева
1004.5 1000.6
00 18.05 В 8 5000 м дымка 8/0
[Cs]
+28.3 +25.8 86 +42 +42 опасность
перегрева
1006.3 1002.3 +27.0
03 18.05 В 4 5000 м мгла 8/0
[Cs]
+32.5 +24.4 62 +45 +54 опасность
перегрева
1007.3 1003.4
06 18.05 СЗ 2 8000 м мгла 10/3 600 м
[Cu hum Cs]
+36.1 +24.7 52 +49 +61 опасность
перегрева
1004.8 1001.0
09 18.05 ЮЗ 4 8000 м мгла 10/1 600 м
[Cu hum Cs]
+37.4 +23.3 45 +48 +52 опасность
перегрева
1002.4 998.5
12 18.05 ЮВ 6 7000 м мгла 10/3 600 м
[Cu med, cong Cs]
+33.5 +25.8 64 +49 +49 опасность
перегрева
1002.6 998.8 +38.0
15 18.05 ЮЗ 2 6000 м дымка 8/0
[Cs]
+31.4 +25.5 71 +46 +46 опасность
перегрева
1005.4 1001.5
18 18.05 ЮВ 4 6000 м дымка 6/0
[Cs]
+29.8 +26.7 83 +46 +46 опасность
перегрева
1004.8 1000.9
21 18.05 ЮВ 2 6000 м дымка 6/0
[Cs]
+29.0 +26.3 85 +44 +44 опасность
перегрева
1004.2 1000.3
00 19.05 штиль 0 6000 м дымка 8/0
[Cs]
+29.1 +25.4 80 +42 +44 опасность
перегрева
1007.0 1003.0 +27.4
03 19.05 В 3 8000 м мгла 8/0
[Cs]
+34.0 +24.3 57 +46 +57 опасность
перегрева
1008.4 1004.6
06 19.05 штиль 0 8000 м мгла 8/1 600 м
[Cu hum Cs]
+37.4 +24.1 47 +49 +71 опасность
перегрева
1006.2 1002.4
09 19.05 штиль 0 8000 м мгла 8/1 600 м
[Cu med, cong Cs]
+39.0 +24.2 43 +50 +59 опасность
перегрева
1003.3 999.5
12 19.05 штиль 0 7000 м мгла 8/1 600 м
[Cu med, cong Cs]
+34.7 +26.1 61 +51 +51 опасность
перегрева
1003.6 999.8 +39.1
15 19.05 штиль 0 6000 м дымка 8/0
[Cs]
+31.9 +27.2 76 +50 +50 опасность
перегрева
1006.0 1002.1
18 19.05 штиль 0 5000 м дымка 8/0
[Cs]
+30.3 +25.3 75 +44 +44 опасность
перегрева
1006.1 1002.2
21 19.05 ЮВ 5 4000 м дымка 8/0
[Cs]
+29.0 +25.0 79 +42 +42 опасность
перегрева
1005.6 1001.7
00 20.05 штиль 0 5000 м дымка 8/0
[Cs]
+29.4 +25.9 81 +44 +46 опасность
перегрева
1007.4 1003.5 +28.0
03 20.05 штиль 0 7000 м дымка 8/1 600 м
[Cu hum Cs]
+34.0 +26.4 65 +51 +67 опасность
перегрева
1008.4 1004.6
06 20.05 штиль 0 8000 м мгла 8/1 600 м
[Cu med, cong Cs]
+38.4 +24.7 46 +51 +73 опасность
перегрева
1006.2 1002.4
09 20.05 штиль 0 7000 м мгла 9/3 600 м
[Cb cap Cs]
+39.0 +26.7 50 +55 +62 опасность
перегрева
1002.9 999.1
12 20.05 штиль 0 6000 м мгла 9/1 600 м
[Cb cap Cs]
+33.9 +25.8 63 +49 +49 опасность
перегрева
1003.6 999.8 +39.6
15 20.05 штиль 0 5000 м дымка 9/1 600 м
[Cu hum Ac As Cs]
+32.4 +27.2 74 +51 +51 опасность
перегрева
1006.3 1002.4
18 20.05 Ю 6 5000 м дымка 8/1 600 м
[Cu hum Cs]
+30.9 +25.2 72 +45 +45 опасность
перегрева
1006.2 1002.3
21 20.05 штиль 0 5000 м дымка 8/0
[Cs]
+29.1 +26.6 86 +45 +45 опасность
перегрева
1006.1 1002.1
00 21.05 штиль 0 5000 м дымка 8/0
[Cs]
+29.5 +26.0 81 +44 +46 опасность
перегрева
1007.2 1003.3 +27.8
03 21.05 Ю 4 5000 м дымка 8/1 600 м
[Cu hum Cs]
+33.5 +26.1 65 +49 +57 опасность
перегрева
1008.6 1004.7
06 21.05 З 6 7000 м мгла 9/3 600 м
[Cu med, cong Cs]
+37.2 +25.2 50 +51 +55 опасность
перегрева
1006.2 1002.3
09 21.05 С 4 7000 м мгла 10/3 600 м
[Cu med, cong Cs]
+37.6 +24.8 48 +50 +53 опасность
перегрева
1003.7 999.8
12 21.05 В 6 6000 м мгла 10/3 600 м
[Cu med, cong Cs]
+33.0 +24.8 62 +46 +46 опасность
перегрева
1004.6 1000.8 +38.5
15 21.05 З 20 5000 м зарница 10/5 600 м
[Cb cap]
+31.5 +24.7 67 +44 +44 опасность
перегрева
1007.7 1003.8

 

Местоположение метеостанции Пичит Агромет (Таиланд): широта 16.43 долгота 100.28 высота над уровнем моря 38 м.

В архиве по умолчанию представлена погода в Пичит Агромете за последнюю неделю. Архивные данные за месяц целиком и за предыдущие месяцы, начиная с января 2011 года, Вы можете получить, выбрав интересующий диапазон дат из раскрывающегося списка и нажав кнопку "Ввод!".


*Определитесь, кто Вы:
робот инопланетянин человек

Внимание! Время в таблицах - всемирное. Для получения местного времени необходимо прибавить поправку, которая равна 7 ч.

Смотрите также архив погоды в соседних городах и на ближайших метеорологических станциях:

Погода в Пхитсанулоке (Таиланд) (39 км)
Погода в Накхон Саван (Таиланд) (71 км)
Погода в Кампхэнгпхете (Таиланд) (80 км)
Погода в Сукхотаи (Таиланд) (90 км)
Погода в Пхетчабуне (Таиланд) (93 км)
Погода в Си Самронг Агромете (Таиланд) (93 км)
Погода в Ломсаке (Таиланд) (110 км)
Погода в Утай Тани (Таиланд) (120 км)
Погода в Такфа Агромете (Таиланд) (122 км)
Погода в Вичан Бури (Таиланд) (126 км)

Пояснения к столбцам:

Ветер - указаны скорость ветра в м/с - средняя за 10 мин, порывы в срок и между сроками (в фигурных скобках) и направление, откуда дует ветер: С - северный, СВ - северо-восточный, В - восточный, ЮВ - юго-восточный, Ю - южный, ЮЗ - юго-западный, З - западный, СЗ - северо-западный.
Видимость - горизонтальная дальность видимости в метрах или километрах. При видимости от 1 до 10 км при отсутствии осадков обычно наблюдается дымка, при ухудшении видимости до 1 км и менее - туман. В сухую погоду видимость может ухудшаться дымом, пылью или мглою.
Явления - указаны атмосферные явления, наблюдавшиеся в срок или в последний час перед сроком; фигурными скобками обозначены явления, наблюдавшиеся между сроками (за 1-3 часа до срока); квадратными скобками обозначены град или гололедные отложения с указанием их диаметра в мм.
Облачность - указаны через наклонную черту общая и нижняя облачность в баллах и высота нижней границы облаков в метрах; квадратными скобками обозначены формы облаков: Ci - перистые, Cs - перисто-слоистые, Cc - перисто-кучевые, Ac - высококучевые, As - высокослоистые, Sc - слоисто-кучевые, Ns - слоисто-дождевые, Cu - кучевые, Cb - кучево-дождевые. Подробнее классификацию облаков см. в Атласе облаков (PDF).
T - Температура воздуха - температура, измеренная на высоте 2 м над землей.
Td - Температура точки росы - температура, при понижении до которой содержащийся в воздухе водяной пар достигнет насыщения.
f - Относительная влажность воздуха - влажноcть воздуха, измеренная на высоте 2 м над землей.
Te - Эффективная температура - температура, которую ощущает одетый по сезону человек в тени. Характеристика душности погоды. При расчете учитывается влияние влажности воздуха и скорости ветра на теплоощущения человека.
Tes - Эффективная температура на солнце - температура, которую ощущает человек, с поправкой на солнечный нагрев. Характеристика знойности погоды. Зависит от высоты солнца над горизонтом, облачности и скорости ветра. Ночью, в пасмурную погоду, а также при ветре 12 м/с и более поправка равна нулю.
P - Атмосферное давление - приведенное к уровню моря атмосферное давление.
Po - Атмосферное давление - измеренное на уровне метеостанции атмосферное давление.
Tmin - Минимальная температура - минимум температуры воздуха на высоте 2 м над землей.
Tmax - Максимальная температура - максимум температуры воздуха на высоте 2 м над землей.
R - Количество осадков - Количество выпавших осадков за период времени, мм. При наведении курсора мыши на число - период времени, за который выпало указанное количество осадков.
R24 - Количество осадков - Количество выпавших осадков за 24 часа, мм.
S - Снежный покров - Высота снежного покрова, см. При наведении курсора мыши на число - состояние снежного покрова и степень покрытия местности в баллах.